Location: Harwich
(41.7160°N, 69.9939°W)
Time: 12:49:28
(UTC+01:00)

A-11 Canister half - Pass Details

Date: 05 December 2023
Orbit: 1526 x 1682 km, 47.3° (Epoch: 01 March)

Event Time Altitude Azimuth Distance (km) Brightness Sun altitude
Rises 05:32:02 0° 292° (WNW) 4,921 - -70.6°
Reaches altitude 10° 05:35:14 10° 294° (WNW) 3,920 - -70.6°
Maximum altitude 05:45:20 82° 23° (NNE) 1,646 - -70.4°
Drops below altitude 10° 05:55:04 10° 111° (ESE) 3,794 - -69.9°
Sets 05:58:06 0° 113° (ESE) 4,757 - -69.8°
